Regional Weather Roundup
Issued by NWS

Home | Current Version | Previous Version | Text Only | Print | Product List | Glossary Off
Versions: 1 2 3 4 5 6 7 8 9 10 11 12 13 14 15 16 17 18 19 20 21 22 23 24 25 26 27 28 29 30 31 32 33 34 35 36 37 38 39 40 41 42 43 44 45 46 47 48 49 50

000
ASUS45 KSLC 280410
RWRUT

UTAH REGIONAL WEATHER ROUNDUP
NATIONAL WEATHER SERVICE SALT LAKE CITY UT
1000 PM MDT SUN JUL 27 2014

UTZ001>011-023>025-280500-

NORTHERN UTAH

CITY           SKY/WX    TMP DP  RH WIND       PRES   REMARKS
HILL AFB       MOCLDY    85  37  18 E5        30.14R
LOGAN          CLEAR     80  51  36 S6        30.12R
OGDEN          PTCLDY    83  39  21 S5        30.10R
PROVO AIRPORT  MOCLDY    82  52  34 E3        30.15R
SALT LAKE CITY MOCLDY    84  39  20 SE5       30.09R
VERNAL         PTCLDY    78  46  32 NW6       30.21R
WENDOVER       CLOUDY    88  41  19 W10       30.10S
HEBER CITY     MOCLDY    77  37  24 NE3       30.24R
WEST JORDAN    CLEAR     86  46  25 SW6       30.14R

$$

UTZ012>022-026-027-280500-

SOUTHERN UTAH

CITY           SKY/WX    TMP DP  RH WIND       PRES   REMARKS
BRYCE CANYON   CLOUDY    61  56  83 N5        30.43R
CEDAR CITY     CLOUDY    69  57  65 CALM      30.27R
MILFORD        CLOUDY    82  47  29 CALM      30.20R
MOAB/CYNLANDS  PTCLDY    84  49  29 N7        30.15R
PRICE          CLOUDY    79  47  32 S15G25    30.28R
ST GEORGE      MOCLDY    86  50  28 SE12      30.04R
KANAB            N/A     75  52  43 CALM      30.24R

$$

REGIONAL REPORTS     COLORADO/ARIZONA

CITY           SKY/WX    TMP DP  RH WIND       PRES   REMARKS
CRAIG, CO      PTCLDY    61  40  45 CALM      30.29R
GRAND JUNCTION MOCLDY    80  48  32 S9        30.21R
RIFLE          MOCLDY    78  46  32 SE17      30.25R
MONTROSE       CLOUDY    73  54  51 S5        30.32R
CORTEZ         LGT RAIN  66  61  84 S10       30.42R
PAGE, AZ       CLOUDY    81  54  39 SW20G35   30.20R
GRAND CANYON   RAIN      61  56  83 E20       30.42R
KINGMAN        PTCLDY    82  55  39 S6        30.09R HAZE
FLAGSTAFF      LGT RAIN  63  49  60 NW9       30.43R

$$

REGIONAL REPORTS    NEVADA/IDAHO/WYOMING

CITY           SKY/WX    TMP DP  RH WIND       PRES   REMARKS
LAS VEGAS, NV  CLOUDY    82  63  52 SW16      29.98F
ELY            CLOUDY    65  53  65 NW7       30.37S
ELKO           CLOUDY    80  42  25 W3        30.19R
POCATELLO, ID  CLEAR     75  39  27 E7        30.13R
BURLEY         MOCLDY    77  50  38 SW7       30.09R
EVANSTON, WY   PTCLDY    73  22  14 E6        30.36R
ROCK SPRINGS   CLEAR     70  21  15 E12       30.35R

$$


USA.gov is the U.S. government's official web portal to all federal, state and local government web resources and services.